OPS 1127

operational
NORAD ID: 4047 Int'l Des: 1969-062 Owner: SAMSO Country: US
LEOCIRCULARRETROGRADESSO

About OPS 1127

Description loading...

Live Position

Loading 3D Globe...

Upcoming Passes

Altitude History

Altitude vs Time

uPlot chart will show altitude changes over time

Two-Line Element Set

1 4047U 69062A 26061.11273306 .00000141 00000-0 70941-4 0 9997
2 4047 98.4386 279.9104 0043350 209.1500 150.7262 14.29484933946031
Epoch: Mar 2, 2026 • Age: 39 hours

Current Status

Altitude 804.2 km
Velocity 7.46 km/s
Sub-Earth Point -78.23°S, 26.82°E
Type other

Large Constellations

Loading constellations...